Regional Weather Roundup
Issued by NWS Green Bay, WI

Home | Current Version | Previous Version | Text Only | Print | Product List | Glossary On
Versions: 1 2 3 4 5 6 7 8 9 10 11 12 13 14 15 16 17 18 19 20 21 22 23 24 25 26 27 28 29 30 31 32 33 34 35 36 37 38 39 40 41 42 43 44 45 46 47 48 49 50
000
ASUS43 KGRB 202310
RWRGRB

NORTH-CENTRAL AND NORTHEAST WISCONSIN REGIONAL WEATHER ROUNDUP
NATIONAL WEATHER SERVICE GREEN BAY WI
500 PM CST SAT DEC 20 2014

WIZ005-009-010>012-018-019-210000-
NORTH CENTRAL WISCONSIN

CITY           SKY/WX    TMP DP  RH WIND       PRES   REMARKS
IRONWOOD       CLOUDY    30  27  86 SE5       30.10F
MANITOWISH WTR CLOUDY    27  26  95 SE6       30.12F
ARBOR VITAE    CLOUDY    29  27  90 S5        30.13S FOG
EAGLE RIVER    CLOUDY    28  27  99 CALM      30.14S
LAND O LAKES   CLOUDY    28  27  98 CALM      30.14S FOG
RHINELANDER    CLOUDY    27  25  92 S3        30.15S FOG
PHILLIPS       CLOUDY    28  25  89 S7        30.13S
ANTIGO         CLOUDY    26  24  91 S6        30.17S
TOMAHAWK       CLOUDY    27  25  91 CALM      30.16S FOG
MERRILL        CLOUDY    28  26  91 CALM      30.17S FOG
$$

WIZ013-073-210000-
NORTHEAST WISCONSIN

CITY           SKY/WX    TMP DP  RH WIND       PRES   REMARKS
IRON MOUNTAIN  CLOUDY    28  23  81 SE3       30.18S
MARINETTE      CLOUDY    28  25  86 SE3       30.23S
OCONTO         CLOUDY    28  25  86 CALM      30.23F
$$

WIZ017-030-035>037-045-210000-
CENTRAL WISCONSIN

CITY           SKY/WX    TMP DP  RH WIND       PRES   REMARKS
MEDFORD        CLOUDY    28  25  90 SE3       30.15S FOG
WAUSAU         CLOUDY    29  24  82 S6        30.17R
MOSINEE        CLOUDY    28  27  93 SE5       30.18S
MARSHFIELD     CLOUDY    30  26  85 SE7       30.16S
WISC RAPIDS    CLOUDY    30  24  78 SE5       30.20S
STEVENS POINT  CLOUDY    28  24  86 SE3       30.19S
WAUPACA        LGT SNOW  31  27  84 SE5       30.21F
SHAWANO        CLOUDY    31  25  77 CALM      30.22S
CLINTONVILLE   CLOUDY    30  25  80 CALM      30.22S
$$

WIZ038-039-048-051-210000-
FOX VALLEY

CITY           SKY/WX    TMP DP  RH WIND       PRES   REMARKS
NWS GREEN BAY  CLOUDY    30  25  81 CALM      30.23S HAZE
APPLETON       LGT SNOW  27  23  86 VRB3      30.22S
OSHKOSH        CLOUDY    28  24  85 SE3       30.22S FOG
FOND DU LAC    CLOUDY    29  24  82 S3        30.22F
$$

WIZ022-050-052-210000-
EAST CENTRAL WISCONSIN

CITY           SKY/WX    TMP DP  RH WIND       PRES   REMARKS
STURGEON BAY   CLOUDY    28  21  74 CALM      30.25S
MANITOWOC      CLOUDY    31  26  82 CALM      30.24S
SHEBOYGAN      CLOUDY    30  25  81 CALM      30.23S
$$

LMZ563-521-522-541>543-210000-
LAKESHORE

STATION/POSITION TIME  TEMP    WIND        PRES    VSBY  WAVE
                       AIR SEA DIR/SP/G                  HT/PER
                 (UTC) (F)     (DEG/KT/KT) (MB)    (MI)  (FT/S)
SHEBOYGAN LKSHOR 2300   31 34  290/  5/  5 1024.9R
KEWAUNEE LKSHORE 2300   29      CALM  /  1 1022.9F
ALGOMA MARINA    2300             CALM       N/A
TWO RIVERS CG    2300   30                 1023.9      6   1
NORTHPORT PIER   2300   30      CALM  /  2 1024.0S
STURGEON BAY CG  2200   32      50/  3     1024.6      6   1
CHAMBERS ISLAND  2300   29        CALM     1024.0S
MENOMINEE LKSHOR 2300   29     170/  3/  4 1024.6R
$$



USA.gov is the U.S. government's official web portal to all federal, state and local government web resources and services.